Drummond Island, MI

12:38 PM EDT on March 25, 2017 (GMT -0400)
Drummond Island

Weather History for KDRM - January, 2013

Change the Weather History Date:

Tuesday, January 22, 2013

  Actual Average (KCIU) Record (KCIU)
Temperature  
Mean Temperature -10 °F -  
Max Temperature -3 °F 25 °F 41 °F (1997)
Min Temperature -19 °F 2 °F -27 °F (1984)
Degree Days  
Heating Degree Days 74    
Moisture  
Dew Point -17 °F    
Average Humidity 73    
Maximum Humidity 83    
Minimum Humidity 55    
Precipitation  
Precipitation 0.00 in - - ()
Sea Level Pressure  
Sea Level Pressure 30.11 in    
Wind  
Wind Speed 4 mph (North)    
Max Wind Speed 7 mph    
Max Gust Speed -    
Visibility 10 miles    
Events      
Averages and records for this station are not official NWS values.
T = Trace of Precipitation, MM = Missing Value Source: NWS Daily Summary

Daily Weather History Graph

Daily Weather History Graph

Search for Another Location

Airport or City:

Trip Planner

Search our weather history database for the weather conditions in past years. The results will help you decide how hot, cold, wet, or windy it might be!

Date:

Astronomy

Jan. 22, 2013 Rise Set
Actual Time 8:07 AM EST 5:26 PM EST
Civil Twilight 7:34 AM EST 5:59 PM EST
Nautical Twilight 6:58 AM EST 6:35 PM EST
Astronomical Twilight 6:22 AM EST 7:11 PM EST
Moon 1:46 PM EST (1/22) 4:30 AM EST (1/22)
Length of Visible Light 10h 24m
Length of Day
9h 18m
Waxing Gibbous, 82% of the Moon is Illuminated
Jan 22
Waxing Gibbous
Jan 26
Full
Feb 3
Last Quarter
Feb 10
New
Feb 17
First Quarter

Hourly Weather History & Observations

Time (EST) Temp. Windchill Dew Point Humidity Pressure Visibility Wind Dir Wind Speed Gust Speed Precip Events Conditions
12:16 AM 0.1 °F -11.4 °F -4.0 °F 83% 29.95 in 10.0 mi NNE 5.8 mph - N/A   Overcast
12:35 AM -1.5 °F -13.3 °F -5.8 °F 82% 29.95 in 10.0 mi North 5.8 mph - N/A   Overcast
12:56 AM -3.1 °F -13.5 °F -7.6 °F 81% 29.95 in 10.0 mi North 4.6 mph - N/A   Overcast
1:16 AM -4.0 °F -14.6 °F -8.5 °F 81% 29.96 in 10.0 mi North 4.6 mph - N/A   Overcast
1:35 AM -4.4 °F -15.0 °F -9.6 °F 78% 29.96 in 10.0 mi North 4.6 mph - N/A   Overcast
1:56 AM -4.5 °F -16.9 °F -10.3 °F 76% 29.97 in 10.0 mi North 5.8 mph - N/A   Overcast
2:15 AM -4.9 °F -18.8 °F -10.5 °F 77% 29.98 in 10.0 mi North 6.9 mph - N/A   Mostly Cloudy
2:35 AM -4.9 °F -15.6 °F -10.5 °F 77% 29.99 in 10.0 mi North 4.6 mph - N/A   Scattered Clouds
2:56 AM -5.4 °F -16.2 °F -11.2 °F 76% 30.00 in 10.0 mi North 4.6 mph - N/A   Clear
3:15 AM -6.0 °F -14.7 °F -11.4 °F 77% 30.00 in 10.0 mi North 3.5 mph - N/A   Clear
3:36 AM -7.6 °F -16.5 °F -12.6 °F 79% 30.01 in 10.0 mi North 3.5 mph - N/A   Clear
3:56 AM -8.0 °F -16.9 °F -13.4 °F 77% 30.01 in 10.0 mi North 3.5 mph - N/A   Clear
4:15 AM -8.5 °F -19.8 °F -13.5 °F 79% 30.02 in 10.0 mi North 4.6 mph - N/A   Scattered Clouds
4:36 AM -8.3 °F -19.6 °F -13.9 °F 77% 30.03 in 10.0 mi North 4.6 mph - N/A   Scattered Clouds
4:55 AM -9.0 °F -20.4 °F -14.3 °F 78% 30.03 in 10.0 mi North 4.6 mph - N/A   Scattered Clouds
5:16 AM -9.8 °F -19.0 °F -14.8 °F 78% 30.03 in 10.0 mi NNW 3.5 mph - N/A   Mostly Cloudy
5:36 AM -10.1 °F -19.4 °F -14.8 °F 80% 30.04 in 10.0 mi North 3.5 mph - N/A   Mostly Cloudy
5:55 AM -10.3 °F -21.9 °F -15.0 °F 80% 30.04 in 10.0 mi North 4.6 mph - N/A   Overcast
6:16 AM -10.8 °F -20.2 °F -15.7 °F 79% 30.06 in 10.0 mi North 3.5 mph - N/A   Overcast
6:35 AM -11.6 °F -21.0 °F -16.1 °F 80% 30.06 in 10.0 mi North 3.5 mph - N/A   Mostly Cloudy
6:55 AM -12.1 °F -21.7 °F -16.6 °F 80% 30.07 in 10.0 mi North 3.5 mph - N/A   Scattered Clouds
7:16 AM -13.4 °F -23.1 °F -17.9 °F 80% 30.08 in 10.0 mi North 3.5 mph - N/A   Scattered Clouds
7:35 AM -13.2 °F -22.9 °F -17.9 °F 80% 30.08 in 10.0 mi NNE 3.5 mph - N/A   Scattered Clouds
7:56 AM -12.6 °F -22.3 °F -18.4 °F 75% 30.09 in 10.0 mi NNE 3.5 mph - N/A   Overcast
8:16 AM -12.8 °F -24.9 °F -18.9 °F 74% 30.10 in 10.0 mi NNE 4.6 mph - N/A   Mostly Cloudy
8:36 AM -13.4 °F -25.5 °F -19.3 °F 75% 30.11 in 10.0 mi NNE 4.6 mph - N/A   Clear
8:55 AM -14.1 °F -26.3 °F -19.7 °F 76% 30.12 in 10.0 mi North 4.6 mph - N/A   Clear
9:16 AM -13.0 °F -27.0 °F -19.5 °F 73% 30.13 in 10.0 mi North 5.8 mph - N/A   Clear
9:35 AM -13.0 °F -25.1 °F -19.7 °F 72% 30.13 in 10.0 mi North 4.6 mph - N/A   Clear
9:56 AM -12.3 °F -24.2 °F -18.9 °F 72% 30.14 in 10.0 mi NNE 4.6 mph - N/A   Clear
10:15 AM -11.7 °F -23.6 °F -19.1 °F 70% 30.15 in 10.0 mi North 4.6 mph - N/A   Clear
10:35 AM -11.6 °F -23.4 °F -19.1 °F 69% 30.15 in 10.0 mi North 4.6 mph - N/A   Clear
10:56 AM -10.8 °F - -18.4 °F 69% 30.16 in 10.0 mi Calm Calm - N/A   Clear
11:15 AM -10.3 °F -23.8 °F -19.3 °F 65% 30.16 in 10.0 mi North 5.8 mph - N/A   Clear
11:36 AM -9.6 °F -18.8 °F -18.8 °F 64% 30.16 in 10.0 mi North 3.5 mph - N/A   Clear
11:56 AM -9.4 °F -24.3 °F -19.3 °F 62% 30.16 in 10.0 mi North 6.9 mph - N/A   Clear
12:15 PM -9.4 °F -22.7 °F -18.9 °F 63% 30.16 in 10.0 mi NNW 5.8 mph - N/A   Clear
12:36 PM -9.2 °F -20.7 °F -19.3 °F 61% 30.16 in 10.0 mi North 4.6 mph - N/A   Clear
12:55 PM -8.9 °F -20.2 °F -19.3 °F 60% 30.16 in 10.0 mi NNW 4.6 mph - N/A   Clear
1:15 PM -8.7 °F -17.8 °F -19.3 °F 60% 30.15 in 10.0 mi North 3.5 mph - N/A   Clear
1:36 PM -8.5 °F - -19.3 °F 59% 30.16 in 10.0 mi Calm Calm - N/A   Clear
1:55 PM -8.3 °F - -19.1 °F 59% 30.16 in 10.0 mi Calm Calm - N/A   Clear
2:16 PM -7.8 °F -16.7 °F -18.8 °F 59% 30.16 in 10.0 mi North 3.5 mph - N/A   Clear
2:35 PM -7.1 °F - -18.6 °F 57% 30.16 in 10.0 mi Calm Calm - N/A   Clear
2:56 PM -6.9 °F -15.7 °F -18.9 °F 56% 30.16 in 10.0 mi North 3.5 mph - N/A   Clear
3:16 PM -6.7 °F -15.5 °F -18.9 °F 55% 30.16 in 10.0 mi North 3.5 mph - N/A   Clear
3:35 PM -6.3 °F - -18.6 °F 55% 30.17 in 10.0 mi Calm Calm - N/A   Clear
3:56 PM -6.7 °F - -18.8 °F 56% 30.17 in 10.0 mi Calm Calm - N/A   Clear
4:16 PM -6.7 °F - -18.6 °F 56% 30.16 in 10.0 mi Calm Calm - N/A   Clear
4:35 PM -6.7 °F - -18.0 °F 58% 30.16 in 10.0 mi Calm Calm - N/A   Clear
4:56 PM -6.0 °F - -17.5 °F 58% 30.16 in 10.0 mi Calm Calm - N/A   Clear
5:15 PM -7.2 °F - -17.5 °F 61% 30.16 in 10.0 mi Calm Calm - N/A   Clear
5:35 PM -9.2 °F - -17.5 °F 67% 30.16 in 10.0 mi Calm Calm - N/A   Clear
5:56 PM -11.4 °F - -17.5 °F 74% 30.17 in 10.0 mi Calm Calm - N/A   Clear
6:15 PM -13.2 °F - -17.9 °F 80% 30.17 in 10.0 mi Calm Calm - N/A   Clear
6:35 PM -15.2 °F - -19.7 °F 80% 30.17 in 10.0 mi Calm Calm - N/A   Clear
6:56 PM -16.6 °F - -20.6 °F 82% 30.17 in 10.0 mi Calm Calm - N/A   Clear
7:15 PM -17.1 °F - -21.3 °F 81% 30.17 in 10.0 mi Calm Calm - N/A   Clear
7:36 PM -16.6 °F - -20.9 °F 81% 30.17 in 10.0 mi Calm Calm - N/A   Clear
7:56 PM -17.3 °F - -21.5 °F 81% 30.17 in 10.0 mi Calm Calm - N/A   Clear
8:15 PM -18.8 °F - -23.4 °F 79% 30.17 in 10.0 mi Calm Calm - N/A   Clear
8:36 PM -17.9 °F - -22.2 °F 81% 30.16 in 10.0 mi Calm Calm - N/A   Clear
8:56 PM -18.4 °F - -22.9 °F 80% 30.16 in 10.0 mi Calm Calm - N/A   Clear
9:15 PM -19.3 °F - -23.8 °F 80% 30.16 in 10.0 mi Calm Calm - N/A   Clear
9:36 PM -18.2 °F - -22.7 °F 80% 30.16 in 10.0 mi Calm Calm - N/A   Scattered Clouds
9:55 PM -18.8 °F - -23.4 °F 79% 30.15 in 10.0 mi Calm Calm - N/A   Scattered Clouds
10:15 PM -17.3 °F - -22.2 °F 79% 30.15 in 10.0 mi Calm Calm - N/A   Mostly Cloudy
10:36 PM -16.8 °F - -21.8 °F 78% 30.15 in 10.0 mi Calm Calm - N/A   Overcast
10:55 PM -15.9 °F - -20.7 °F 79% 30.15 in 10.0 mi Calm Calm - N/A   Overcast
11:15 PM -14.4 °F - -18.9 °F 80% 30.15 in 10.0 mi Calm Calm - N/A   Mostly Cloudy
11:36 PM -14.8 °F - -19.3 °F 80% 30.15 in 10.0 mi Calm Calm - N/A   Overcast
11:55 PM -13.0 °F - -17.5 °F 80% 30.15 in 10.0 mi Calm Calm - N/A   Overcast